Regional Weather Roundup
Issued by NWS Cleveland, OH

Home | Current Version | Previous Version | Graphics & Text | Print | Product List | Glossary On
Versions: 1 2 3 4 5 6 7 8 9 10 11 12 13 14 15 16 17 18 19 20 21 22 23 24 25 26 27 28 29 30 31 32 33 34 35 36 37 38 39 40 41 42 43 44 45 46 47 48 49 50
000
ASUS41 KCLE 191500
RWRCLE
OHIO REGIONAL WEATHER ROUNDUP
NATIONAL WEATHER SERVICE WILMINGTON, OH
1100 AM EDT SAT APR 19 2014

NOTE: "FAIR" INDICATES FEW OR NO CLOUDS BELOW 12,000 FEET WITH NO
SIGNIFICANT WEATHER AND/OR OBSTRUCTIONS TO VISIBILITY.

OHZ001>008-015>018-024>027-034-035-043-044-191600-
   NORTHWEST OHIO

CITY           SKY/WX    TMP DP  RH WIND       PRES   REMARKS
DEFIANCE       SUNNY     48  34  58 E10       30.44R
FINDLAY        SUNNY     48  34  58 NE14      30.41S
TOLEDO EXPRESS SUNNY     47  30  51 E13       30.44S
TOLEDO METCALF SUNNY     45  32  60 NE12G22   30.45F
LIMA           SUNNY     50  36  58 NE13      30.39S
$$

OHZ009>014-019>023-028>033-038-089-191600-
   NORTHEAST OHIO

CITY           SKY/WX    TMP DP  RH WIND       PRES   REMARKS
CLE-HOPKINS    SUNNY     46  33  60 N7        30.46S
CLE-LAKEFRONT  SUNNY     42  35  76 N13       30.43S
CUY CO. ARPT   SUNNY     46  30  53 NE12      30.43R
LORAIN-ELYRIA  SUNNY     48  32  53 NE10      30.43S
ASHTABULA      SUNNY     45  30  55 VRB6      30.43S
AKRON-CANTON   MOSUNNY   51  30  44 E10       30.40S
WOOSTER        NOT AVBL
MANSFIELD      SUNNY     49  35  58 NE12      30.39S
YOUNGSTOWN     MOSUNNY   48  28  46 N7        30.39F
$$

OHZ042-051>053-060>062-070>072-077>081-191600-
  SOUTHWEST OHIO

CITY           SKY/WX    TMP DP  RH WIND       PRES   REMARKS
CINC-COVINGTON SUNNY     60  44  55 NE9       30.31S
CINC-LUNKEN    SUNNY     60  45  57 N8        30.32F
HAMILTON       SUNNY     60  45  57 NE10      30.34S
DAYTON         NOT AVBL
WRIGHT-PAT AFB SUNNY     54  42  62 NE7       30.35S
DAYTON GENERAL SUNNY     57  42  57 NE12      30.33S
WILMINGTON     SUNNY     57  40  52 NE12G20   30.32F
$$

OHZ036-037-039>041-045>050-054>059-063>069-073>076-082>088-191600-
  CENTRAL AND SOUTHEAST OHIO

CITY           SKY/WX    TMP DP  RH WIND       PRES   REMARKS
COLUMBUS       SUNNY     58  39  49 NE10      30.35S
OSU AIRPORT    SUNNY     55  40  56 NE16      30.36S
BOLTON FIELD   SUNNY     55  41  58 E12       30.36R
RICKENBACK AFB NOT AVBL
NEWARK         SUNNY     55  37  50 NE9       30.35F
MARION         SUNNY     51  36  56 NE12      30.39S
LANCASTER      SUNNY     58  40  51 E12       30.34F
ZANESVILLE     SUNNY     57  37  47 E13       30.35S
NEW PHILLY     SUNNY     54  35  48 NE10      30.38F
$$



USA.gov is the U.S. government's official web portal to all federal, state and local government web resources and services.